Retour au catalogue

KUIPER-00592

ActifCommunicationsLEO
NORAD 69277·PAYLOAD·🇺🇸 United States

Lancé May 29, 2026 depuis Vandenberg Space Force Base

Loading…

Prochains Passages (prochaines 24 heures)

TLE

FraisSource: CelesTrak SupGP

Époque: Sep 14, 2026, 18:33 UTC

1 69277C 26118L   26257.77298611  .00004398  00000+0  57593-3 0  2574
2 69277  51.9040   4.4080 0000498 102.9846 104.9159 14.79910538    16

Suivez KUIPER-00592 en temps réel avec AllMySat

Download on the App Store